User: anonymous   Login
Location: Brachbach
(49.1847°N, 9.7240°E)
Time: 13:49:31
(UTC+00:00)
Language:

Nimbus 7 Rocket - Orbit

View from above orbital plane
View from above orbital plane
View from above satellite
View from above satellite

Ground track
Ground track

The orbit data is extracted from the following two-line orbital elements,

1 11081U 78098B   24196.19327127  .00000081  00000-0  10995-3 0  9993
2 11081  99.3759 118.3799 0028140 230.8005 129.0651 13.85910886150645
Epoch (UTC): 14 July 2024 04:38:18
Eccentricity: 0.0028140
inclination: 99.3759°
perigee height: 922 km
apogee height: 963 km
right ascension of ascending node: 118.3799°
argument of perigee: 230.8005°
revolutions per day: 13.85910886
mean anomaly at epoch: 129.0651°
orbit number at epoch: 15064

The dashed part of the orbit path shows where the satellite is in the earth's shadow,  

DLR